Weather Roundup
Issued by NWS Chicago, IL

Home | Current Version | Previous Version | Text Only | Print | Product List | Glossary On
Versions: 1 2 3 4 5 6 7 8 9 10 11 12 13 14 15 16 17 18 19 20 21 22 23 24 25 26 27 28 29 30 31 32 33 34 35 36 37 38 39 40 41 42 43 44 45 46 47 48 49 50
000
NZUS59 KLOT 012301
HRRLOT

CHICAGO AREA WEATHER ROUNDUP
NATIONAL WEATHER SERVICE CHICAGO/ROMEOVILLE IL
600 PM CDT TUE SEP 01 2015

NOTE: "FAIR" INDICATES FEW OR NO CLOUDS BELOW 12,000 FEET WITH NO
SIGNIFICANT WEATHER AND/OR OBSTRUCTIONS TO VISIBILITY.

* THESE STATIONS ARE NOT UNDER NWS QUALITY CONTROL. THEY ALSO MAY NOT
  REPORT WEATHER SUCH AS PRECIPITATION OR FOG.

ILZ005-006-012>014-019>023-020000-
NORTHEAST ILLINOIS

CITY           SKY/WX    TMP DP  RH WIND       PRES   REMARKS
OHARE          MOSUNNY   86  72  62 SW12      29.99S HX  92
MIDWAY         MOSUNNY   88  71  57 SW16      30.00S HX  94
AURORA         SUNNY     86  74  67 S8        30.01S HX  94
LANSING*       SUNNY     84  71  65 S7        30.02S HX  89
WAUKEGAN       SUNNY     85  69  58 SW12      29.98R HX  89
DUPAGE AIRPORT SUNNY     86  72  62 SW13      30.00S HX  92
WHEELING       MOSUNNY   87  70  56 SW9       30.00S HX  92
NORTHERLY IS     N/A     87  67  51 S8          N/A  HX  90
$$

WIZ051-052-058>065-066-070>072-020000-
SOUTHEAST WISCONSIN

CITY           SKY/WX    TMP DP  RH WIND       PRES   REMARKS
MILWAUKEE      MOSUNNY   87  68  52 SW15      29.96S HX  90
KENOSHA*       SUNNY     86  70  58 SW9       29.98S HX  90
RACINE*        SUNNY     87  69  54 SW8       29.99R HX  91
WAUKESHA       SUNNY     82  68  61 SW6       29.98S HX  85
$$

INZ001>003-010>013-019-020-020000-
NORTHWEST INDIANA

CITY           SKY/WX    TMP DP  RH WIND       PRES   REMARKS
GARY*          MOSUNNY   86  66  51 S9        30.02S HX  88
MICHIGAN CITY* NOT AVBL
RENSSELAER*    NOT AVBL
$$

LMZ740>746-020000-
SOUTHERN LAKE MICHIGAN

STATION/POSITION TIME  SKY/WX   TEMP WIND        PRES    VSBY
                                AIR  DIR/SP/G
                 (UTC)          (F)  (DEG/KT/KT) (MB)    (MI)
HARRISON CRIB    NOT AVBL
BURNHAM HARBOR   2200            88  200/  7/ 16   N/A
CALUMET HARBOR   2200            86  200/  7/ 12   N/A
BURNS HARBOR     2200            84  190/  8/ 11 1016.6F
MICHIGAN CITY    NOT AVBL
$$

ABBREVIATIONS USED IN REMARKS
   TC - TEMPERATURE IN CELSIUS
  WCI - WIND CHILL INDEX
   HX - HEAT INDEX
  VSB - VISIBILITY
$$


USA.gov is the U.S. government's official web portal to all federal, state and local government web resources and services.